Location: Peterborough
(44.3091°N, 78.3197°W)
Time: 04:19:06
(UTC-04:00)

Tiros 1 - Pass Details

Date: 03 April 2023
Orbit: 627 x 661 km, 48.4° (Epoch: 09 June)

Event Time Altitude Azimuth Distance (km) Brightness Sun altitude
Rises 01:24:09 0° 183° (S) 2,946 - -40.4°
Reaches altitude 10° 01:28:04 10° 150° (SSE) 2,050 - -40.4°
Maximum altitude 01:29:37 12° 131° (SE) 1,954 - -40.4°
Drops below altitude 10° 01:31:11 10° 111° (ESE) 2,061 - -40.4°
Sets 01:35:08 0° 79° (E) 2,984 - -40.3°
